This is the latest recevied weather packets stored in our database for station/object N8XHB. If no packets are shown the sender has not sent any weather packets the latest 10 day(s).
| Time | Temp. | Humidity | Pressure | Rain* | Wind** | Luminosity | Snow |
|---|---|---|---|---|---|---|---|
| 1777505553 | 7.22° C | 86% | 1013 hPa | 0 mm | - | 6 W/m² | - |
| 1777505250 | 7.22° C | 87% | 1013 hPa | 0 mm | - | 11 W/m² | - |
| 1777504947 | 7.22° C | 87% | 1013 hPa | 0 mm | - | 11 W/m² | - |
| 1777504644 | 7.22° C | 87% | 1013.2 hPa | 0 mm | - | 11 W/m² | - |
| 1777504341 | 7.22° C | 87% | 1013 hPa | 0 mm | - | 14 W/m² | - |
| 1777504041 | 7.22° C | 88% | 1013.1 hPa | 0 mm | - | 18 W/m² | - |
| 1777503738 | 7.78° C | 88% | 1013 hPa | 0 mm | - | 18 W/m² | - |
| 1777503435 | 7.78° C | 88% | 1013.1 hPa | 0 mm | - | 18 W/m² | - |
| 1777503130 | 7.78° C | 88% | 1013.1 hPa | 0 mm | - | 16 W/m² | - |
| 1777502828 | 7.78° C | 89% | 1013 hPa | 0 mm | - | 13 W/m² | - |
| 1777502525 | 7.78° C | 88% | 1012.9 hPa | 0 mm | - | 16 W/m² | - |
| 1777502222 | 7.78° C | 88% | 1012.9 hPa | 0 mm | - | 26 W/m² | - |
| 1777501919 | 7.78° C | 88% | 1013 hPa | 0 mm | - | 24 W/m² | - |
| 1777501616 | 7.78° C | 89% | 1012.8 hPa | 0 mm | - | 32 W/m² | - |
| 1777501313 | 8.33° C | 89% | 1012.8 hPa | 0 mm | - | 39 W/m² | - |
| 1777501011 | 8.33° C | 89% | 1012.7 hPa | 0 mm | - | 43 W/m² | - |
| 1777500709 | 8.33° C | 89% | 1012.6 hPa | 0 mm | - | 54 W/m² | - |
| 1777500405 | 8.33° C | 89% | 1012.6 hPa | 0 mm | - | 49 W/m² | - |
| 1777500101 | 8.33° C | 90% | 1012.7 hPa | 0 mm | - | 69 W/m² | - |
| 1777499798 | 8.33° C | 89% | 1012.7 hPa | 0 mm | - | 69 W/m² | - |
| 1777499494 | 8.33° C | 90% | 1012.7 hPa | 0 mm | - | 69 W/m² | - |
| 1777499193 | 7.78° C | 91% | 1012.6 hPa | 0 mm | - | 56 W/m² | - |
| 1777498889 | 7.78° C | 90% | 1012.7 hPa | 0 mm | - | 67 W/m² | - |
| 1777498586 | 8.33° C | 90% | 1012.5 hPa | 0 mm | - | 62 W/m² | - |
| 1777498282 | 8.33° C | 90% | 1012.4 hPa | 0 mm | - | 45 W/m² | - |
* Rain latest hour (hover to see other rain measurements)
** Current wind speed in m/s (hover to see current wind gust speed)